When you browse on this site, cookies collect data to enhance your experience and personalize the content and advertising you see.
Visit our Privacy Policy to learn more. By continuing to use the site, you agree to this use of cookies and data.
  • In France
  • List of Countries
  • For 7 days
  • Water Temperature
  • Satellite Maps
  • Weather Map
  • Weather Widgets
  • user-avatar
    Login

    Hourly Weather Wigston Magna

    Today, 19 June, Wednesday

    Time Temperature Precipitation Wind Pressure Humidity
    00:00 +12°C° 0 mm 0 mps 749 mmHg 96%
    01:00 +12°C° 0 mm 0 mps 749 mmHg 96%
    02:00 +12°C° 0 mm 0 mps 748 mmHg 96%
    03:00 +13°C° 0 mm 1 mps 748 mmHg 96%
    04:00 +13°C° 0 mm 1 mps 748 mmHg 96%
    05:00 +13°C° 0 mm 1 mps 747 mmHg 95%
    06:00 +14°C° 0 mm 1 mps 747 mmHg 95%
    07:00 +14°C° 0 mm 1 mps 747 mmHg 94%
    08:00 +15°C° 0 mm 2 mps 747 mmHg 92%
    09:00 +15°C° 0 mm 2 mps 747 mmHg 91%
    10:00 +16°C° 0.1 mm 2 mps 747 mmHg 87%
    11:00 +17°C° 0.1 mm 2 mps 747 mmHg 84%
    12:00 +18°C° 0.1 mm 2 mps 747 mmHg 80%
    13:00 +18°C° 0.3 mm 2 mps 747 mmHg 82%
    14:00 +17°C° 0.3 mm 3 mps 747 mmHg 84%
    15:00 +17°C° 0.3 mm 3 mps 747 mmHg 85%
    16:00 +17°C° 0 mm 3 mps 747 mmHg 84%
    17:00 +17°C° 0 mm 3 mps 747 mmHg 82%
    18:00 +18°C° 0 mm 2 mps 747 mmHg 80%
    19:00 +16°C° 0 mm 2 mps 747 mmHg 83%
    20:00 +15°C° 0 mm 2 mps 748 mmHg 86%
    21:00 +14°C° 0 mm 2 mps 748 mmHg 88%
    22:00 +13°C° 0 mm 2 mps 748 mmHg 89%
    23:00 +12°C° 0 mm 2 mps 748 mmHg 89%

    Tomorrow, 20 June, Thursday

    Time Temperature Precipitation Wind Pressure Humidity
    00:00 +10°C° 0 mm 3 mps 749 mmHg 89%
    01:00 +10°C° 0 mm 3 mps 749 mmHg 91%
    02:00 +9°C° 0 mm 3 mps 748 mmHg 92%
    03:00 +8°C° 0 mm 3 mps 748 mmHg 93%
    04:00 +9°C° 0 mm 3 mps 749 mmHg 93%
    05:00 +10°C° 0 mm 3 mps 749 mmHg 92%
    06:00 +10°C° 0 mm 4 mps 749 mmHg 92%
    07:00 +12°C° 0.1 mm 4 mps 749 mmHg 87%
    08:00 +13°C° 0.1 mm 4 mps 750 mmHg 83%
    09:00 +14°C° 0.1 mm 4 mps 750 mmHg 79%
    10:00 +14°C° 0.2 mm 4 mps 750 mmHg 78%
    11:00 +14°C° 0.2 mm 4 mps 750 mmHg 77%
    12:00 +14°C° 0.2 mm 4 mps 750 mmHg 76%
    13:00 +15°C° 0.2 mm 4 mps 750 mmHg 75%
    14:00 +15°C° 0.2 mm 4 mps 750 mmHg 75%
    15:00 +15°C° 0.2 mm 5 mps 750 mmHg 74%
    16:00 +15°C° 0.2 mm 4 mps 751 mmHg 75%
    17:00 +15°C° 0.2 mm 4 mps 751 mmHg 77%
    18:00 +14°C° 0.2 mm 4 mps 751 mmHg 78%
    19:00 +13°C° 0 mm 4 mps 751 mmHg 79%
    20:00 +11°C° 0 mm 3 mps 752 mmHg 81%
    21:00 +9°C° 0 mm 3 mps 752 mmHg 83%
    22:00 +9°C° 0 mm 3 mps 752 mmHg 84%
    23:00 +8°C° 0 mm 3 mps 753 mmHg 85%

    Day after tomorrow, 21 June, Friday

    Time Temperature Precipitation Wind Pressure Humidity
    00:00 +7°C° 0 mm 3 mps 753 mmHg 86%
    01:00 +7°C° 0 mm 3 mps 753 mmHg 88%
    02:00 +7°C° 0 mm 3 mps 753 mmHg 91%
    03:00 +5°C° 0 mm 3 mps 753 mmHg 93%
    04:00 +7°C° 0 mm 3 mps 753 mmHg 92%
    05:00 +8°C° 0 mm 3 mps 754 mmHg 90%
    06:00 +9°C° 0 mm 3 mps 754 mmHg 89%
    07:00 +10°C° 0 mm 4 mps 754 mmHg 84%
    08:00 +12°C° 0 mm 4 mps 755 mmHg 79%
    09:00 +13°C° 0 mm 4 mps 755 mmHg 73%
    10:00 +14°C° 0.1 mm 4 mps 755 mmHg 71%
    11:00 +15°C° 0.1 mm 4 mps 755 mmHg 69%
    12:00 +15°C° 0.1 mm 4 mps 755 mmHg 66%
    13:00 +17°C° 0 mm 3 mps 756 mmHg 66%
    14:00 +17°C° 0 mm 3 mps 756 mmHg 66%
    15:00 +17°C° 0 mm 3 mps 756 mmHg 66%
    16:00 +17°C° 0 mm 3 mps 756 mmHg 68%
    17:00 +17°C° 0 mm 2 mps 756 mmHg 70%
    18:00 +16°C° 0 mm 2 mps 756 mmHg 73%
    19:00 +15°C° 0 mm 1 mps 756 mmHg 76%
    20:00 +13°C° 0 mm 1 mps 757 mmHg 79%
    21:00 +10°C° 0 mm 0 mps 757 mmHg 82%
    22:00 +9°C° 0 mm 0 mps 757 mmHg 83%
    23:00 +9°C° 0 mm 0 mps 757 mmHg 83%

    22 June, Saturday

    Time Temperature Precipitation Wind Pressure Humidity
    00:00 +8°C° 0 mm 0 mps 757 mmHg 84%
    01:00 +8°C° 0 mm 0 mps 757 mmHg 82%
    02:00 +7°C° 0 mm 0 mps 757 mmHg 82%
    03:00 +7°C° 0 mm 0 mps 757 mmHg 83%
    04:00 +8°C° 0 mm 0 mps 757 mmHg 83%
    05:00 +9°C° 0 mm 0 mps 757 mmHg 82%
    06:00 +10°C° 0 mm 0 mps 758 mmHg 81%
    07:00 +13°C° 0 mm 1 mps 758 mmHg 78%
    08:00 +14°C° 0 mm 1 mps 758 mmHg 74%
    09:00 +16°C° 0 mm 1 mps 758 mmHg 71%
    10:00 +16°C° 0 mm 1 mps 758 mmHg 68%
    11:00 +18°C° 0 mm 1 mps 758 mmHg 65%
    12:00 +18°C° 0 mm 2 mps 758 mmHg 63%
    13:00 +19°C° 0 mm 1 mps 757 mmHg 63%
    14:00 +19°C° 0 mm 1 mps 757 mmHg 64%
    15:00 +19°C° 0 mm 1 mps 757 mmHg 64%
    16:00 +19°C° 0 mm 1 mps 757 mmHg 66%
    17:00 +19°C° 0 mm 1 mps 757 mmHg 67%
    18:00 +19°C° 0 mm 1 mps 757 mmHg 69%
    19:00 +16°C° 0 mm 1 mps 757 mmHg 74%
    20:00 +15°C° 0 mm 1 mps 757 mmHg 79%
    21:00 +13°C° 0 mm 1 mps 758 mmHg 84%
    22:00 +12°C° 0 mm 1 mps 758 mmHg 86%
    23:00 +12°C° 0 mm 1 mps 758 mmHg 88%

    23 June, Sunday

    Time Temperature Precipitation Wind Pressure Humidity
    00:00 +11°C° 0 mm 1 mps 758 mmHg 90%
    01:00 +10°C° 0 mm 2 mps 758 mmHg 91%
    02:00 +10°C° 0 mm 2 mps 758 mmHg 92%
    03:00 +9°C° 0 mm 2 mps 758 mmHg 93%
    04:00 +10°C° 0 mm 2 mps 758 mmHg 92%
    05:00 +12°C° 0 mm 2 mps 758 mmHg 90%
    06:00 +13°C° 0 mm 2 mps 758 mmHg 89%
    07:00 +13°C° 0 mm 3 mps 758 mmHg 84%
    08:00 +14°C° 0 mm 3 mps 758 mmHg 79%
    09:00 +15°C° 0 mm 4 mps 758 mmHg 73%
    10:00 +17°C° 0 mm 4 mps 758 mmHg 73%
    11:00 +18°C° 0 mm 4 mps 758 mmHg 73%
    12:00 +19°C° 0 mm 4 mps 758 mmHg 72%
    13:00 +19°C° 0.2 mm 4 mps 758 mmHg 75%
    14:00 +19°C° 0.2 mm 5 mps 757 mmHg 78%
    15:00 +19°C° 0.2 mm 5 mps 757 mmHg 80%
    16:00 +17°C° 0.1 mm 5 mps 757 mmHg 82%
    17:00 +16°C° 0.1 mm 5 mps 757 mmHg 83%
    18:00 +16°C° 0.1 mm 5 mps 757 mmHg 84%
    19:00 +15°C° 0 mm 5 mps 757 mmHg 84%
    20:00 +14°C° 0 mm 4 mps 757 mmHg 84%
    21:00 +13°C° 0 mm 4 mps 757 mmHg 85%
    22:00 +13°C° 0.2 mm 4 mps 757 mmHg 88%
    23:00 +13°C° 0.2 mm 5 mps 757 mmHg 91%

    24 June, Monday

    Time Temperature Precipitation Wind Pressure Humidity
    00:00 +13°C° 0.2 mm 5 mps 757 mmHg 94%
    01:00 +13°C° 0.6 mm 6 mps 757 mmHg 94%
    02:00 +13°C° 0.6 mm 6 mps 756 mmHg 95%
    03:00 +12°C° 0.6 mm 7 mps 756 mmHg 95%
    04:00 +12°C° 0.5 mm 7 mps 756 mmHg 95%
    05:00 +12°C° 0.5 mm 8 mps 755 mmHg 95%
    06:00 +12°C° 0.5 mm 8 mps 755 mmHg 95%
    07:00 +12°C° 0 mm 7 mps 755 mmHg 95%
    08:00 +12°C° 0 mm 7 mps 755 mmHg 95%
    09:00 +14°C° 0 mm 6 mps 755 mmHg 94%
    10:00 +14°C° 0.1 mm 7 mps 755 mmHg 94%
    11:00 +15°C° 0.1 mm 7 mps 755 mmHg 94%
    12:00 +15°C° 0.1 mm 7 mps 755 mmHg 94%
    13:00 +16°C° 0 mm 7 mps 755 mmHg 92%
    14:00 +16°C° 0 mm 7 mps 755 mmHg 91%
    15:00 +17°C° 0 mm 6 mps 755 mmHg 89%
    16:00 +16°C° 0.3 mm 6 mps 754 mmHg 91%
    17:00 +16°C° 0.3 mm 6 mps 754 mmHg 92%
    18:00 +16°C° 0.3 mm 7 mps 754 mmHg 94%
    19:00 +16°C° 0.3 mm 6 mps 754 mmHg 94%
    20:00 +15°C° 0.3 mm 6 mps 755 mmHg 95%
    21:00 +15°C° 0.3 mm 5 mps 755 mmHg 95%
    22:00 +15°C° 0.3 mm 5 mps 755 mmHg 96%
    23:00 +15°C° 0.3 mm 5 mps 755 mmHg 96%
    Show more